Home > Weather > Santa Barbara > Past weeks

Flag for USA Weather for the Past 2 Weeks in Santa Barbara, California, USA

Now
57 °F

Clear.


Feels Like: 57 °F
Forecast: 50 / 69 °F
Wind: 5 mph from North

Location: Santa Barbara Municipal Airport

Current Time: Apr 28, 2016 at 11:26:57 PM

Latest Report: Apr 28, 2016 at 9:53 PM


Visibility: 10 mi

Pressure: 29.91 "Hg

Humidity: 69%

Dew Point: 47 °F

Location of Santa BarbaraLocation

Historic Weather in Santa Barbara — Graph

°F

Santa Barbara Temperature Yesterday

Maximum temperature yesterday: 76 °F (at 1:53 PM)
Minimum temperature yesterday: 51 °F (at 5:53 AM)
Average temperature yesterday: 61 °F

High & Low Weather Summary for the Past Weeks

 TemperatureHumidityPressure
High85 °F (Apr 17, 1:53 PM)96% (Apr 22, 4:53 AM)30.07 "Hg (Apr 22, 4:53 AM)
Low46 °F (Apr 26, 5:53 AM)15% (Apr 17, 1:53 PM)29.76 "Hg (Apr 27, 7:53 PM)
Average62 °F55%29.93 "Hg
* Reported Apr 13 8:53 PM — Apr 28 8:53 PM, Santa Barbara, Weather by CustomWeather, © 2016

Note: Actual official high and low records may vary slightly from our data, if they occured in-between our weather recording intervals... More about our weather records

Advertising

Santa Barbara Weather History for the Previous 24 Hours

Scroll right to see more
 ConditionsComfort  
Time TempWeatherWind HumidityBarometerVisibility
8:53 PM
Thu, Apr 28
58 °FClear.8 mph67%29.88 "Hg10 mi
7:53 PM62 °FSunny.24 mph58%29.85 "Hg10 mi
6:53 PM65 °FPassing clouds.9 mph51%29.82 "Hg10 mi
5:53 PM67 °FSunny.10 mph51%29.81 "Hg10 mi
4:53 PM67 °FSunny.20 mph51%29.81 "Hg10 mi
3:53 PM69 °FSunny.18 mph49%29.80 "Hg10 mi
2:53 PM70 °FPassing clouds.17 mph47%29.82 "Hg10 mi
1:53 PM66 °FPassing clouds.21 mph52%29.83 "Hg10 mi
12:53 PM66 °FPassing clouds.20 mph52%29.84 "Hg10 mi
11:57 AM65 °FPassing clouds.23 mph52%29.86 "Hg10 mi
10:53 AM65 °FPassing clouds.20 mph52%29.85 "Hg10 mi
9:53 AM67 °FPassing clouds.12 mph41%29.84 "Hg10 mi
8:53 AM60 °FPassing clouds.6 mph56%29.84 "Hg10 mi
7:53 AM56 °FPassing clouds.7 mph65%29.84 "Hg10 mi
6:53 AM50 °FPassing clouds.8 mph74%29.83 "Hg10 mi
5:53 AM51 °FClear.15 mph74%29.81 "Hg10 mi
4:53 AM51 °FClear.9 mph71%29.81 "Hg10 mi
3:53 AM49 °FClear.8 mph74%29.81 "Hg10 mi
2:53 AM50 °FClear.8 mph71%29.81 "Hg10 mi
1:53 AM52 °FClear.5 mph64%29.80 "Hg10 mi
12:53 AM53 °FClear.15 mph61%29.81 "Hg10 mi
11:53 PM
Wed, Apr 27
55 °FClear.16 mph53%29.81 "Hg10 mi
Weather by CustomWeather, © 2016

See weather overviewHow to use our weather pages